Regional Weather Roundup
Issued by NWS

Home | Current Version | Previous Version | Graphics & Text | Print | Product List | Glossary On
Versions: 1 2 3 4 5 6 7 8 9 10 11 12 13 14 15 16 17 18 19 20 21 22 23 24 25 26 27 28 29 30 31 32 33 34 35 36 37 38 39 40 41 42 43 44 45 46 47 48 49
000
ASUS45 KCYS 221210
RWRWY

WYOMING REGIONAL WEATHER ROUNDUP
NATIONAL WEATHER SERVICE CHEYENNE WY
500 AM MST MON DEC 22 2014

NOTE:  "FAIR" INDICATES FEW OR NO CLOUDS BELOW 12,000 FEET
WITH NO SIGNIFICANT WEATHER AND/OR OBSTRUCTIONS TO VISIBILITY.

WYZ001-221300-
YELLOWSTONE NATIONAL PARK

CITY           SKY/WX    TMP DP  RH WIND       PRES   REMARKS
LK YELLOWSTONE   N/A     22  18  85 W10G17    29.79F WCI  11
6HR MIN TEMP:  21; 6HR MAX TEMP:  23; 6HR PCP:  0.01;

W YELLOWSTONE  NOT AVBL

$$
WYZ002>013-054>058-071-098>099-221300-
NORTHERN WYOMING

CITY           SKY/WX    TMP DP  RH WIND       PRES   REMARKS
JACKSON        CLOUDY    28  27  93 S9        29.84F WCI  20
CODY           CLOUDY    32  21  64 W5        29.73R WCI  27
GREYBULL       CLOUDY    25  21  85 NE5       29.74S WCI  19
6HR MIN TEMP:  24; 6HR MAX TEMP:  34;

WORLAND        CLOUDY    30  21  69 SW7       29.75F WCI  23
6HR MIN TEMP:  21; 6HR MAX TEMP:  34;

SHERIDAN       CLOUDY    37  21  52 NW15      29.69R WCI  28
6HR MIN TEMP:  36; 6HR MAX TEMP:  39; 6HR PCP: TRACE;

BUFFALO        CLOUDY    36  15  42 NW16G24   29.69R WCI  26
6HR MIN TEMP:  30; 6HR MAX TEMP:  37;

GILLETTE       CLOUDY    32  23  69 NW15      29.66S WCI  22
6HR MIN TEMP:  30; 6HR MAX TEMP:  33; 6HR PCP:  0.01;

HULETT           N/A    N/A N/A N/A MISG        N/A
NEWCASTLE      LGT SNOW  32  28  86 NW29      29.64R WCI  18

$$
WYZ014>020-022>026-101>103-221300-
CENTRAL WYOMING

CITY           SKY/WX    TMP DP  RH WIND       PRES   REMARKS
BIG PINEY      CLOUDY    26  23  88 W8        29.84F WCI  18
6HR MIN TEMP:  22; 6HR MAX TEMP:  28; 6HR PCP: TRACE;

PINEDALE       LGT SNOW  23  23 100 W3        29.84S
DUBOIS         NOT AVBL
LANDER         FAIR      27  12  53 SE3       29.74F
6HR MIN TEMP:  24; 6HR MAX TEMP:  33;

RIVERTON       FAIR      31  18  58 NW20      29.75S WCI  19
6HR MIN TEMP:  28; 6HR MAX TEMP:  34;

CASPER         FAIR      24  18  77 W13       29.73S WCI  12
6HR MIN TEMP:  23; 6HR MAX TEMP:  34;

DOUGLAS        FAIR      26  22  84 NW10      29.72S WCI  16
6HR MIN TEMP:  26; 6HR MAX TEMP:  33;


$$
WYZ021-027>030-104>119-221300-
SOUTHERN WYOMING

CITY           SKY/WX    TMP DP  RH WIND       PRES   REMARKS
EVANSTON       CLOUDY    30  27  88 W17       29.92F WCI  18
6HR MIN TEMP:  30; 6HR MAX TEMP:  33; 6HR PCP: TRACE;

KEMMERER       FLURRIES  28  27  93 W17G24    29.89R WCI  16
FORT BRIDGER   CLOUDY    32  29  88 W17G29    29.91F WCI  21
ROCK SPRINGS   CLOUDY    28  23  81 NW17      29.85F WCI  16
6HR MIN TEMP:  24; 6HR MAX TEMP:  32; 6HR PCP: TRACE;

DIXON          PTSUNNY   27  23  84 W8        29.86F WCI  19
RAWLINS        FAIR      22  14  71 W6        29.78F WCI  14
6HR MIN TEMP:  18; 6HR MAX TEMP:  28;

SARATOGA       PTSUNNY   21  18  86 W7        29.80S WCI  13
LARAMIE        MOCLDY    23  15  71 NW17      29.72S WCI   9
6HR MIN TEMP:  21; 6HR MAX TEMP:  25; 6HR PCP: TRACE;

CHEYENNE       FAIR      28  18  66 NW15G22   29.70S WCI  16
6HR MIN TEMP:  27; 6HR MAX TEMP:  33; 6HR PCP: TRACE;

TORRINGTON     FAIR     N/A N/A N/A NW3       29.68F
PINE BLUFFS    CLOUDY    30  28  93 NW9       29.71S WCI  22

$$


USA.gov is the U.S. government's official web portal to all federal, state and local government web resources and services.